[[{"header":{"parameterUnit":"m.s-1","parameterCategory":1,"la1":30.2991,"la2":30.254,"lo1":-89.0895,"lo2":-89.0444,"dy":0.0017,"dx":0.0017,"nx":28,"ny":28,"refTime":"2025-03-13T21:00:00:Z","depth":0,"parameterNumber":2,"parameterNumberName":"U-component_of_WINDS"},"data":[0,0,0,0,0,0,0,0,0,0,0,0,0,0,0,0,0,0,0,0,0,0,0,0,0,0,0,0,0,0,0,0,0,0,0,0,0,0,0,0,0,0,0,0,0,0,0,0,0,0,0,0,0,0,0,0,0,0,-4.242,-4.2422,0,-4.2607,-4.2609,-4.2611,-4.2681,-4.268,-4.268,-4.2679,-4.2871,-4.2876,-4.2882,0,0,0,0,0,0,0,0,0,0,0,0,0,-4.2122,-4.2127,-4.2419,-4.2422,-4.2424,-4.2607,-4.2609,-4.2612,-4.2681,-4.268,-4.2679,-4.2679,-4.2869,-4.2875,-4.2882,0,0,0,0,0,0,0,0,0,0,0,0,0,-4.2274,-4.2129,-4.2419,-4.2481,-4.2488,-4.2606,-4.2609,-4.2612,-4.2681,-4.268,-4.2679,-4.2678,-4.2867,-4.2875,-4.2883,-4.2954,0,0,-4.2909,-4.2913,0,0,0,0,0,0,0,0,-4.2266,-4.2285,-4.2469,-4.2477,-4.2485,-4.262,-4.2575,-4.2727,-4.2681,-4.2608,-4.2679,-4.2678,-4.2788,-4.2803,-4.284,-4.2963,-4.2971,-4.291,-4.2915,-4.2919,-4.2921,0,0,0,0,0,0,0,-4.2255,-4.2278,-4.2494,-4.2472,-4.2482,-4.2499,-4.252,-4.2604,-4.2701,-4.2614,-4.262,-4.2641,-4.2792,-4.2831,-4.2845,-4.2974,-4.291,-4.2917,-4.2922,-4.2926,-4.3163,-4.3165,0,0,0,0,0,0,-4.2234,-4.2268,-4.2488,-4.2499,-4.2371,-4.2505,-4.2528,-4.2577,-4.27,-4.2718,-4.2641,-4.2643,-4.2817,-4.2835,-4.2852,-4.2942,-4.2919,-4.2927,-4.2931,-4.3162,-4.3164,-4.3165,0,0,0,0,0,0,-4.2227,-4.2253,-4.248,-4.2385,-4.2416,-4.2511,-4.2566,-4.2582,-4.2621,-4.2721,-4.2738,-4.2664,-4.2817,-4.284,-4.2928,-4.295,-4.293,-4.2938,-4.3161,-4.3163,-4.3164,-4.3123,0,0,0,0,0,0,-4.2219,-4.225,-4.2278,-4.2386,-4.242,-4.2553,-4.2567,-4.2586,-4.2636,-4.264,-4.2746,-4.2763,-4.2818,-4.2915,-4.2936,-4.2961,-4.2945,-4.3159,-4.3162,-4.3164,-4.3122,-4.3123,-4.3123,0,0,0,0,0,-4.2208,-4.2259,-4.2279,-4.2305,-4.2457,-4.2554,-4.2574,-4.2637,-4.2637,-4.2666,-4.273,-4.276,-4.2944,-4.2923,-4.2948,-4.2975,-4.3158,-4.3161,-4.3164,-4.3122,-4.3123,-4.3123,0,0,0,0,0,0,-4.2151,-4.2274,-4.2298,-4.2385,-4.2458,-4.2565,-4.2603,-4.2635,-4.271,-4.2711,-4.2786,-4.2809,-4.2891,-4.2942,-4.2917,-4.305,-4.3053,-4.3061,-4.3013,-4.3014,-4.3015,-4.3,-4.2952,0,0,0,0,0,-4.2149,-4.2217,-4.2321,-4.2388,-4.2424,-4.2507,-4.2551,-4.2594,-4.2673,-4.2704,-4.2774,-4.285,-4.2925,-4.2973,-4.3047,-4.3131,-4.3155,-4.3162,-4.3162,-4.3162,-4.3167,-4.3215,-4.3219,-4.3174,-4.3174,-4.3174,0,0,-4.2145,-4.222,-4.2259,-4.2378,-4.244,-4.2509,-4.2533,-4.2605,-4.2657,-4.2715,-4.2802,-4.2856,-4.2946,-4.3031,-4.3073,-4.3077,-4.3186,-4.3165,-4.3164,-4.317,-4.3218,-4.3222,-4.3226,-4.3176,-4.3176,-4.3175,0,0,-4.2172,-4.2236,-4.2299,-4.236,-4.2454,-4.2509,-4.2524,-4.2627,-4.2665,-4.2753,-4.2799,-4.2862,-4.2989,-4.3051,-4.3099,-4.315,-4.3181,-4.3173,-4.3174,-4.3219,-4.3223,-4.3226,-4.3244,-4.3249,-4.3178,-4.3178,-4.3178,0,-4.2155,-4.2261,-4.2327,-4.2397,-4.2448,-4.2504,-4.2568,-4.2625,-4.2738,-4.2771,-4.2775,-4.2936,-4.3,-4.3101,-4.3113,-4.3151,-4.317,-4.316,-4.3217,-4.3221,-4.3225,-4.3243,-4.3249,-4.3176,-4.3176,-4.3177,-4.3177,0,-4.2235,-4.2307,-4.2347,-4.2454,-4.251,-4.2576,-4.2653,-4.2701,-4.2739,-4.2793,-4.2883,-4.2962,-4.3053,-4.3081,-4.3118,-4.3187,-4.3186,-4.3202,-4.3207,-4.3227,-4.3244,-4.3252,-4.3174,-4.3174,-4.3175,-4.3175,0,0,-4.2231,-4.2374,-4.2387,-4.2437,-4.2544,-4.2602,-4.2671,-4.276,-4.28,-4.2876,-4.2935,-4.3042,-4.3058,-4.3112,-4.3157,-4.3197,-4.3232,-4.3209,-4.3212,-4.3209,-4.3312,-4.3298,-4.3305,-4.3253,-4.3255,-4.3256,-4.3304,0,-4.2272,-4.2397,-4.2459,-4.2557,-4.2625,-4.268,-4.274,-4.2812,-4.2866,-4.2931,-4.299,-4.3064,-4.3079,-4.3113,-4.3155,-4.3218,-4.3253,-4.3216,-4.3309,-4.3311,-4.3283,-4.3315,-4.3301,-4.3342,-4.3312,-4.3313,-4.3314,0,-4.2336,-4.2411,-4.2516,-4.2615,-4.2646,-4.2699,-4.2786,-4.2848,-4.2931,-4.2967,-4.3028,-4.3072,-4.3146,-4.3146,-4.325,-4.3223,-4.3265,-4.3302,-4.3305,-4.3315,-4.3313,-4.3325,-4.3357,-4.3363,-4.3326,-4.3325,-4.3324,0,-4.2321,-4.2449,-4.2529,-4.2569,-4.2687,-4.2723,-4.2774,-4.2856,-4.2906,-4.2982,-4.3015,-4.3099,-4.3144,-4.3208,-4.3274,-4.3268,-4.3371,-4.3376,-4.3403,-4.3401,-4.3421,-4.3419,-4.346,-4.3449,-4.3449,-4.3449,-4.3449,0,-4.236,-4.2421,-4.2523,-4.2572,-4.2643,-4.2714,-4.2782,-4.2837,-4.291,-4.2971,-4.3024,-4.3079,-4.3163,-4.3229,-4.328,-4.3358,-4.3379,-4.341,-4.3422,-4.3404,-4.34,-4.3432,-4.343,-4.3451,-4.345,-4.345,-4.345,0,-4.2355,-4.2426,-4.2515,-4.262,-4.2648,-4.2695,-4.2785,-4.2834,-4.289,-4.2966,-4.2988,-4.3076,-4.3156,-4.3228,-4.3335,-4.337,-4.3449,-4.3465,-4.342,-4.3427,-4.3449,-4.3446,-4.3511,-4.3523,-4.3505,-4.3505,-4.3505,0,-4.2374,-4.2423,-4.2532,-4.2576,-4.2626,-4.2697,-4.2748,-4.282,-4.2871,-4.2969,-4.3007,-4.3091,-4.3162,-4.3288,-4.3362,-4.3444,-4.3462,-4.348,-4.3475,-4.3455,-4.3462,-4.3457,-4.3463,-4.3479,-4.3479,-4.3478,-4.3478,0,-4.24,-4.2433,-4.2504,-4.2588,-4.2647,-4.2717,-4.2788,-4.2821,-4.2906,-4.2961,-4.3044,-4.3099,-4.3208,-4.3291,-4.3381,-4.3434,-4.347,-4.3479,-4.349,-4.3471,-4.3443,-4.3458,-4.3418,-4.3477,-4.3477,-4.3477,-4.3478,-4.3478,-4.2408,-4.2454,-4.2538,-4.2616,-4.2677,-4.2742,-4.2793,-4.2856,-4.2926,-4.302,-4.3058,-4.3142,-4.3225,-4.335,-4.3403,-4.347,-4.3476,-4.3491,-4.3495,-4.3497,-4.3494,-4.3433,-4.3486,-4.3487,-4.3487,-4.3487,-4.3487,0,-4.2437,-4.2493,-4.2564,-4.2662,-4.2723,-4.2752,-4.2832,-4.2881,-4.2954,-4.3028,-4.3097,-4.3192,-4.3273,-4.3353,-4.3439,-4.3477,-4.3496,-4.3497,-4.3494,-4.3506,-4.3483,-4.3465,-4.348,-4.348,-4.348,-4.348,-4.348,-4.348,-4.2459,-4.2537,-4.258,-4.2689,-4.2746,-4.2829,-4.2872,-4.2932,-4.2992,-4.3095,-4.3163,-4.3214,-4.3291,-4.3382,-4.3458,-4.3479,-4.3508,-4.3504,-4.353,-4.3507,-4.3507,-4.3507,-4.349,-4.351,-4.351,-4.3547,-4.3547,-4.3547]},{"header":{"parameterUnit":"m.s-1","parameterCategory":1,"la1":30.2991,"la2":30.254,"lo1":-89.0895,"lo2":-89.0444,"dy":0.0017,"dx":0.0017,"nx":28,"ny":28,"refTime":"2025-03-13T21:00:00:Z","depth":0,"parameterNumber":3,"parameterNumberName":"V-component_of_WINDS"},"data":[0,0,0,0,0,0,0,0,0,0,0,0,0,0,0,0,0,0,0,0,0,0,0,0,0,0,0,0,0,0,0,0,0,0,0,0,0,0,0,0,0,0,0,0,0,0,0,0,0,0,0,0,0,0,0,0,0,0,8.3226,8.3227,0,8.3339,8.334,8.3342,8.3333,8.3331,8.333,8.3328,8.3441,8.3445,8.345,0,0,0,0,0,0,0,0,0,0,0,0,0,8.3001,8.3006,8.3226,8.3227,8.3228,8.3339,8.334,8.3342,8.3333,8.3331,8.3329,8.3327,8.3439,8.3445,8.345,0,0,0,0,0,0,0,0,0,0,0,0,0,8.3105,8.3007,8.3225,8.3238,8.324,8.3338,8.334,8.3342,8.3334,8.3331,8.3329,8.3326,8.3437,8.3444,8.3451,8.3543,0,0,8.3472,8.3475,0,0,0,0,0,0,0,0,8.3099,8.3113,8.3234,8.3237,8.324,8.3319,8.3302,8.341,8.3334,8.3298,8.3328,8.3325,8.3402,8.3412,8.3438,8.3549,8.3553,8.3472,8.3476,8.3479,8.3481,0,0,0,0,0,0,0,8.3092,8.3108,8.327,8.3236,8.3239,8.3237,8.3249,8.3323,8.3363,8.3301,8.3301,8.3314,8.3403,8.3432,8.3441,8.3555,8.3472,8.3478,8.3482,8.3485,8.3752,8.3755,0,0,0,0,0,0,8.3082,8.3102,8.3267,8.3274,8.3162,8.3243,8.3257,8.3296,8.3362,8.337,8.3316,8.3314,8.3421,8.3433,8.3445,8.3561,8.3479,8.3486,8.349,8.3749,8.3752,8.3756,0,0,0,0,0,0,8.3077,8.3097,8.3262,8.3188,8.3209,8.325,8.3294,8.33,8.3329,8.3374,8.338,8.3339,8.342,8.3435,8.352,8.3565,8.3489,8.3495,8.3745,8.375,8.3754,8.3792,0,0,0,0,0,0,8.3071,8.3095,8.3131,8.3189,8.3213,8.3336,8.3297,8.3304,8.3341,8.3338,8.3396,8.3403,8.3419,8.351,8.3527,8.3573,8.35,8.3741,8.3747,8.3753,8.3787,8.3797,8.3806,0,0,0,0,0,8.3063,8.3135,8.3133,8.3152,8.3258,8.3338,8.3352,8.337,8.3344,8.3381,8.3411,8.3402,8.3557,8.3519,8.3538,8.3586,8.3739,8.3746,8.3752,8.3782,8.3795,8.3805,0,0,0,0,0,0,8.3079,8.3143,8.3141,8.3234,8.3281,8.3337,8.3383,8.3382,8.3436,8.3431,8.3449,8.3463,8.3549,8.3576,8.3532,8.3681,8.3644,8.3655,8.3661,8.3673,8.3682,8.3675,8.3506,0,0,0,0,0,8.3093,8.3154,8.3206,8.3283,8.3307,8.3341,8.3377,8.3387,8.3436,8.3455,8.3491,8.3538,8.3598,8.3637,8.3694,8.379,8.3804,8.3833,8.3843,8.385,8.386,8.3916,8.3931,8.3778,8.3778,8.3777,0,0,8.3123,8.3166,8.3202,8.3288,8.3325,8.3388,8.3358,8.3424,8.3471,8.3465,8.3549,8.3577,8.3631,8.3723,8.3765,8.3748,8.3905,8.3859,8.3864,8.387,8.3925,8.3939,8.3952,8.3782,8.3781,8.3781,0,0,8.3211,8.3248,8.3319,8.3358,8.3417,8.344,8.3457,8.3514,8.3533,8.3618,8.3616,8.3671,8.3773,8.3813,8.3846,8.3954,8.3949,8.3972,8.4022,8.4077,8.4089,8.41,8.4141,8.4155,8.3981,8.3981,8.3981,0,8.3241,8.3336,8.3355,8.3423,8.3462,8.3462,8.3534,8.3571,8.3644,8.3671,8.3651,8.3782,8.3818,8.3921,8.3948,8.3974,8.3996,8.3965,8.4086,8.4097,8.4107,8.4147,8.4162,8.3984,8.3983,8.3983,8.3983,0,8.3371,8.3437,8.3487,8.3561,8.3605,8.3675,8.3705,8.3747,8.3754,8.378,8.3867,8.3911,8.3979,8.4004,8.401,8.411,8.4098,8.4081,8.4045,8.4124,8.4162,8.4177,8.3987,8.3986,8.3986,8.3985,0,0,8.347,8.3557,8.3575,8.3611,8.3677,8.3728,8.3799,8.3868,8.3905,8.3956,8.4017,8.4106,8.4092,8.4131,8.4141,8.4189,8.4276,8.4168,8.4169,8.4188,8.4392,8.4406,8.4423,8.4273,8.4276,8.4278,8.4388,0,8.3567,8.3694,8.3715,8.3826,8.3889,8.3891,8.3953,8.4001,8.4027,8.4084,8.4112,8.4176,8.4152,8.4176,8.4223,8.4255,8.4317,8.4247,8.4331,8.4334,8.4319,8.4442,8.4455,8.4558,8.4403,8.4405,8.4407,0,8.3696,8.3754,8.3873,8.3935,8.3962,8.4017,8.4084,8.4138,8.4193,8.4209,8.4254,8.426,8.4335,8.4295,8.4399,8.4351,8.4386,8.4408,8.4412,8.4422,8.4376,8.4457,8.459,8.4607,8.443,8.4428,8.4426,0,8.376,8.3868,8.3954,8.3984,8.4057,8.4096,8.4128,8.4181,8.4222,8.428,8.4308,8.4372,8.4409,8.4459,8.4483,8.4451,8.4587,8.4548,8.4604,8.4603,8.4633,8.4631,8.4776,8.4652,8.4652,8.4652,8.4651,0,8.3867,8.394,8.3985,8.4037,8.412,8.4144,8.4225,8.4256,8.4304,8.4363,8.4368,8.4424,8.4451,8.4512,8.4531,8.4616,8.4631,8.4647,8.4652,8.4648,8.4647,8.4673,8.4667,8.4656,8.4655,8.4654,8.4654,0,8.3953,8.3985,8.408,8.4143,8.416,8.4219,8.4273,8.4325,8.4352,8.4427,8.4446,8.4488,8.456,8.4589,8.4676,8.4689,8.4788,8.4786,8.477,8.4772,8.4827,8.4823,8.4996,8.5021,8.4878,8.488,8.4881,0,8.402,8.4077,8.4147,8.4189,8.4223,8.4288,8.4332,8.4357,8.4402,8.4472,8.4516,8.4588,8.4647,8.4762,8.48,8.4867,8.4868,8.4924,8.4878,8.4874,8.4872,8.487,8.4877,8.4933,8.4934,8.4936,8.4936,0,8.4137,8.4151,8.4213,8.4283,8.4335,8.439,8.4444,8.4478,8.4512,8.4562,8.4637,8.4683,8.4774,8.4846,8.4917,8.495,8.495,8.4951,8.4968,8.4966,8.4956,8.4965,8.4796,8.4947,8.4946,8.4945,8.4944,8.4944,8.4217,8.4269,8.4328,8.4399,8.4443,8.4494,8.4548,8.4583,8.4646,8.4723,8.4734,8.4815,8.4871,8.4966,8.5002,8.5066,8.5052,8.5075,8.5082,8.5088,8.5093,8.4944,8.5078,8.5078,8.5078,8.5078,8.5078,0,8.4337,8.4375,8.444,8.4517,8.4574,8.457,8.4631,8.4678,8.4749,8.4802,8.4862,8.4949,8.502,8.5066,8.5137,8.518,8.5182,8.5198,8.5196,8.5205,8.51,8.508,8.5196,8.5196,8.5196,8.5196,8.5196,8.5196,8.4405,8.4495,8.4517,8.4629,8.4667,8.4747,8.4783,8.4831,8.4874,8.4972,8.5032,8.5062,8.5113,8.5189,8.5255,8.5266,8.5293,8.5311,8.5322,8.5224,8.5211,8.52,8.5181,8.5316,8.5316,8.5421,8.5422,8.5423]}]]